| time (UTC) | temp F | wind direction | speed MPH | gust MPH | rain 1hr in | rain 24hr in | rain mn in | humidity % | barometer mb |
| 20260507104525 | 47 | 337 | 0.0 | 0.0 | 0.00 | 0.74 | 0.23 | 88 | 1007.2 |
| 20260507103022 | 46 | 205 | 0.0 | 3.0 | 0.00 | 0.74 | 0.23 | 88 | 1007.6 |
| 20260507101522 | 46 | 302 | 0.0 | 2.0 | 0.00 | 0.74 | 0.23 | 87 | 1007.1 |
| 20260507100030 | 46 | 323 | 0.0 | 1.0 | 0.00 | 0.74 | 0.23 | 87 | 1006.8 |
| 20260507094519 | 46 | 294 | 0.0 | 3.0 | 0.00 | 0.74 | 0.23 | 86 | 1006.8 |
| 20260507093018 | 46 | 321 | 1.0 | 3.0 | 0.00 | 0.74 | 0.23 | 85 | 1006.4 |
| 20260507091521 | 46 | 286 | 1.0 | 4.0 | 0.00 | 0.74 | 0.23 | 85 | 1006.8 |
| 20260507090015 | 47 | 32 | 1.0 | 8.0 | 0.00 | 0.74 | 0.23 | 85 | 1006.6 |
| 20260507084513 | 47 | 344 | 2.0 | 7.0 | 0.00 | 0.74 | 0.23 | 86 | 1006.5 |
| 20260507083011 | 48 | 24 | 1.0 | 5.0 | 0.00 | 0.74 | 0.23 | 88 | 1006.2 |
| 20260507081508 | 48 | 240 | 1.0 | 4.0 | 0.00 | 0.74 | 0.23 | 89 | 1006.6 |
| 20260507080006 | 48 | 273 | 1.0 | 3.0 | 0.00 | 0.74 | 0.23 | 89 | 1006.2 |
| 20260507074506 | 48 | 299 | 1.0 | 5.0 | 0.00 | 0.74 | 0.23 | 90 | 1006.2 |
| 20260507073004 | 48 | 308 | 1.0 | 5.0 | 0.00 | 0.74 | 0.23 | 91 | 1006.0 |
| 20260507071601 | 48 | 292 | 1.0 | 4.0 | 0.00 | 0.74 | 0.23 | 91 | 1005.9 |
| 20260507070059 | 49 | 296 | 2.0 | 5.0 | 0.00 | 0.74 | 0.23 | 92 | 1005.7 |
| 20260507064611 | 49 | 296 | 1.0 | 5.0 | 0.00 | 0.74 | 0.23 | 92 | 1005.5 |
| 20260507063106 | 49 | 267 | 1.0 | 4.0 | 0.00 | 0.74 | 0.23 | 92 | 1005.3 |
| 20260507061553 | 50 | 329 | 0.0 | 3.0 | 0.01 | 0.74 | 0.23 | 93 | 1005.3 |
| 20260507060051 | 50 | 346 | 1.0 | 3.0 | 0.01 | 0.74 | 0.23 | 93 | 1005.0 |
| 20260507054549 | 51 | 360 | 1.0 | 5.0 | 0.04 | 0.74 | 0.23 | 94 | 1005.3 |
| 20260507053049 | 51 | 322 | 1.0 | 6.0 | 0.11 | 0.74 | 0.23 | 94 | 1005.1 |
| 20260507051547 | 52 | 5 | 2.0 | 7.0 | 0.19 | 0.73 | 0.22 | 94 | 1005.2 |
| 20260507050045 | 52 | 342 | 2.0 | 6.0 | 0.22 | 0.73 | 0.22 | 94 | 1005.1 |
| 20260507044544 | 51 | 340 | 1.0 | 6.0 | 0.20 | 0.70 | 0.19 | 94 | 1005.4 |
| 20260507043046 | 51 | 240 | 1.0 | 4.0 | 0.12 | 0.62 | 0.11 | 94 | 1005.5 |
| 20260507041544 | 51 | 329 | 1.0 | 5.0 | 0.04 | 0.54 | 0.03 | 94 | 1004.8 |
| 20260507040036 | 51 | 290 | 3.0 | 7.0 | 0.01 | 0.51 | 0.00 | 94 | 1004.4 |
| 20260507034543 | 51 | 196 | 4.0 | 8.0 | 0.00 | 0.50 | 0.50 | 94 | 1004.3 |
| 20260507033046 | 51 | 201 | 4.0 | 10.0 | 0.00 | 0.50 | 0.50 | 94 | 1004.4 |
| 20260507031534 | 51 | 222 | 5.0 | 11.0 | 0.00 | 0.50 | 0.50 | 94 | 1004.5 |
| 20260507030032 | 51 | 228 | 7.0 | 11.0 | 0.01 | 0.50 | 0.50 | 94 | 1004.5 |
| 20260507024533 | 51 | 210 | 5.0 | 14.0 | 0.02 | 0.50 | 0.50 | 94 | 1004.6 |
| 20260507023030 | 51 | 209 | 5.0 | 10.0 | 0.03 | 0.50 | 0.50 | 94 | 1004.7 |
| 20260507021527 | 51 | 205 | 5.0 | 12.0 | 0.03 | 0.50 | 0.50 | 94 | 1005.0 |
| 20260507020026 | 51 | 194 | 6.0 | 11.0 | 0.03 | 0.49 | 0.49 | 93 | 1005.1 |
| 20260507014525 | 51 | 238 | 6.0 | 12.0 | 0.03 | 0.48 | 0.48 | 93 | 1005.3 |
| 20260507013021 | 51 | 156 | 7.0 | 13.0 | 0.03 | 0.47 | 0.47 | 93 | 1005.5 |
| 20260507011521 | 51 | 211 | 3.0 | 9.0 | 0.04 | 0.47 | 0.47 | 93 | 1005.5 |
| 20260507010029 | 51 | 206 | 5.0 | 12.0 | 0.03 | 0.46 | 0.46 | 93 | 1005.6 |
| 20260507004518 | 51 | 171 | 7.0 | 11.0 | 0.02 | 0.45 | 0.45 | 93 | 1005.7 |
| 20260507003017 | 52 | 217 | 7.0 | 18.0 | 0.00 | 0.43 | 0.43 | 93 | 1005.6 |
| 20260507001516 | 52 | 190 | 8.0 | 16.0 | 0.00 | 0.43 | 0.43 | 92 | 1005.7 |
| 20260507000012 | 52 | 165 | 7.0 | 16.0 | 0.00 | 0.43 | 0.43 | 92 | 1005.7 |
| 20260506234516 | 52 | 213 | 10.0 | 17.0 | 0.00 | 0.43 | 0.43 | 92 | 1005.8 |
| 20260506233008 | 52 | 233 | 7.0 | 15.0 | 0.01 | 0.43 | 0.43 | 92 | 1006.0 |
| 20260506231506 | 52 | 243 | 9.0 | 17.0 | 0.03 | 0.43 | 0.43 | 92 | 1006.0 |
| 20260506230004 | 53 | 188 | 9.0 | 16.0 | 0.05 | 0.43 | 0.43 | 92 | 1006.2 |
| 20260506224509 | 53 | 192 | 6.0 | 13.0 | 0.06 | 0.42 | 0.42 | 92 | 1006.2 |
| 20260506223108 | 52 | 184 | 6.0 | 14.0 | 0.09 | 0.42 | 0.42 | 92 | 1006.5 |
| 20260506221557 | 52 | 178 | 7.0 | 14.0 | 0.12 | 0.40 | 0.40 | 92 | 1006.5 |
| 20260506220107 | 53 | 189 | 6.0 | 14.0 | 0.15 | 0.38 | 0.38 | 92 | 1006.6 |
| 20260506214553 | 52 | 203 | 5.0 | 11.0 | 0.15 | 0.36 | 0.36 | 92 | 1006.7 |
| 20260506213051 | 51 | 192 | 6.0 | 12.0 | 0.14 | 0.33 | 0.33 | 92 | 1006.9 |
| 20260506211555 | 51 | 161 | 5.0 | 12.0 | 0.13 | 0.28 | 0.28 | 91 | 1007.2 |
| 20260506210047 | 52 | 196 | 6.0 | 11.0 | 0.11 | 0.23 | 0.23 | 91 | 1007.0 |
| 20260506204545 | 52 | 188 | 5.0 | 10.0 | 0.13 | 0.21 | 0.21 | 91 | 1007.1 |
| 20260506203042 | 52 | 167 | 5.0 | 12.0 | 0.17 | 0.19 | 0.19 | 91 | 1007.3 |
| 20260506201541 | 52 | 219 | 4.0 | 9.0 | 0.15 | 0.15 | 0.15 | 91 | 1007.7 |
| 20260506200040 | 52 | 192 | 5.0 | 11.0 | 0.12 | 0.12 | 0.12 | 90 | 1007.7 |
| 20260506194543 | 53 | 184 | 4.0 | 13.0 | 0.07 | 0.07 | 0.07 | 89 | 1007.8 |
| 20260506193034 | 54 | 209 | 5.0 | 16.0 | 0.02 | 0.02 | 0.02 | 87 | 1007.8 |
| 20260506191531 | 55 | 182 | 6.0 | 15.0 | 0.00 | 0.00 | 0.00 | 85 | 1007.4 |
| 20260506190029 | 55 | 204 | 4.0 | 11.0 | 0.00 | 0.00 | 0.00 | 84 | 1007.4 |
| 20260506184530 | 55 | 165 | 7.0 | 13.0 | 0.00 | 0.00 | 0.00 | 83 | 1007.5 |
| 20260506183027 | 55 | 170 | 6.0 | 12.0 | 0.00 | 0.00 | 0.00 | 83 | 1007.7 |
| 20260506181524 | 55 | 175 | 6.0 | 14.0 | 0.00 | 0.00 | 0.00 | 82 | 1007.7 |
| 20260506180021 | 55 | 188 | 5.0 | 11.0 | 0.00 | 0.00 | 0.00 | 82 | 1007.9 |
| 20260506174520 | 54 | 182 | 5.0 | 10.0 | 0.00 | 0.00 | 0.00 | 83 | 1008.1 |
| 20260506173021 | 54 | 196 | 4.0 | 9.0 | 0.00 | 0.00 | 0.00 | 83 | 1008.2 |
| 20260506171523 | 55 | 198 | 5.0 | 15.0 | 0.00 | 0.00 | 0.00 | 83 | 1008.5 |
| 20260506170016 | 55 | 170 | 5.0 | 11.0 | 0.00 | 0.00 | 0.00 | 82 | 1008.8 |
| 20260506164513 | 56 | 174 | 5.0 | 8.0 | 0.00 | 0.00 | 0.00 | 81 | 1009.0 |
| 20260506163107 | 0 | 0.0 | 0.0 | 0.00 | 0.00 | 0.00 | 1009.4 | ||
| 20260506160006 | 56 | 213 | 5.0 | 10.0 | 0.00 | 0.00 | 0.00 | 82 | 1009.8 |
| 20260506154512 | 56 | 190 | 6.0 | 14.0 | 0.00 | 0.00 | 0.00 | 82 | 1010.0 |
| 20260506153022 | 57 | 221 | 4.0 | 11.0 | 0.00 | 0.00 | 0.00 | 82 | 1010.1 |
| 20260506151520 | 58 | 186 | 3.0 | 9.0 | 0.00 | 0.00 | 0.00 | 82 | 1010.0 |
| 20260506150011 | 57 | 223 | 6.0 | 10.0 | 0.00 | 0.00 | 0.00 | 81 | 1009.6 |
| 20260506144506 | 56 | 221 | 7.0 | 11.0 | 0.00 | 0.00 | 0.00 | 82 | 1009.3 |
| 20260506143008 | 57 | 177 | 5.0 | 9.0 | 0.00 | 0.00 | 0.00 | 82 | 1009.6 |
| 20260506141503 | 57 | 219 | 3.0 | 7.0 | 0.00 | 0.00 | 0.00 | 83 | 1010.2 |
| 20260506140020 | 55 | 213 | 4.0 | 10.0 | 0.00 | 0.00 | 0.00 | 84 | 1010.2 |
| 20260506134521 | 55 | 180 | 4.0 | 11.0 | 0.00 | 0.00 | 0.00 | 84 | 1010.1 |
| 20260506133015 | 55 | 194 | 5.0 | 11.0 | 0.00 | 0.00 | 0.00 | 83 | 1010.0 |
| 20260506131527 | 56 | 193 | 5.0 | 10.0 | 0.00 | 0.00 | 0.00 | 82 | 1009.8 |
| 20260506130006 | 56 | 203 | 6.0 | 10.0 | 0.00 | 0.00 | 0.00 | 82 | 1009.7 |
| 20260506124506 | 55 | 215 | 5.0 | 11.0 | 0.00 | 0.00 | 0.00 | 83 | 1009.9 |
| 20260506123019 | 55 | 184 | 3.0 | 8.0 | 0.00 | 0.00 | 0.00 | 85 | 1010.0 |
| 20260506121520 | 54 | 173 | 4.0 | 10.0 | 0.00 | 0.00 | 0.00 | 84 | 1010.0 |
| 20260506120018 | 54 | 162 | 3.0 | 6.0 | 0.00 | 0.00 | 0.00 | 84 | 1010.1 |
| 20260506114511 | 55 | 161 | 1.0 | 5.0 | 0.00 | 0.00 | 0.00 | 84 | 1010.5 |
| 20260506113011 | 54 | 205 | 1.0 | 4.0 | 0.00 | 0.00 | 0.00 | 85 | 1010.4 |
| 20260506111511 | 53 | 187 | 1.0 | 4.0 | 0.00 | 0.00 | 0.00 | 85 | 1010.5 |
| 20260506110009 | 53 | 177 | 2.0 | 7.0 | 0.00 | 0.00 | 0.00 | 85 | 1010.4 |